Skip Page Navigation
NASA JPL Caltech
NASA Logo - Jet Propulsion Laboratory + View the NASA Portal
+ Near-Earth Object (NEO) Program
Search JPL
JPL Home Earth Solar System Stars & Galaxies Technology
JPL Solar System Dynamics
BODIES ORBITS EPHEMERIDES TOOLS PHYSICAL DATA DISCOVERY FAQ SITE MAP
JPL Small-Body Database Browser
Search: [ help ]  
659 Nestor (1908 CS)
Classification: Jupiter Trojan          SPK-ID: 2000659
Ephemeris | Orbit Diagram | Orbital Elements | Physical Parameters | Discovery Circumstances ]

[ hide orbit diagram ]
Orbit Diagram
Note: Make sure you have Java enabled on your browser to see the applet. This applet is provided as a 3D orbit visualization tool. The applet was implemented using 2-body methods, and hence should not be used for determining accurate long-term trajectories (over several years or decades) or planetary encounter circumstances. For accurate long-term ephemerides, please instead use our Horizons system.
Orbit Viewer

Additional Notes: the orbits shown in the applet are color coded. The planets are white lines, and the asteroid/comet is a blue line. The bright white line indicates the portion of the orbit that is above the ecliptic plane, and the darker portion is below the ecliptic plane. Likewise for the asteroid/comet orbit, the light blue indicates the portion above the ecliptic plane, and the dark blue the portion below the ecliptic plane.

Orbit Viewer applet originally written and kindly provided by Osamu Ajiki (AstroArts), and further modified by Ron Baalke (JPL).


Orbital Elements at Epoch 2456400.5 (2013-Apr-18.0) TDB
Reference: JPL 39 (heliocentric ecliptic J2000)
 Element Value Uncertainty (1-sigma)   Units 
e .1144442910937325 7.3301e-08  
a 5.189036601371965 1.1325e-07 AU
q 4.595180986068519 3.8459e-07 AU
i 4.520850262927867 7.9964e-06 deg
node 350.8721974984191 8.9826e-05 deg
peri 342.1599372951562 9.5775e-05 deg
M 157.9924893289746 3.177e-05 deg
tp 2454505.703957178938
(2008-Feb-09.20395718)
0.00038169 JED
period 4317.462040839467
11.82
0.00014134
3.87e-07
d
yr
n .08338231965787088 2.7297e-09 deg/d
Q 5.78289221667541 1.2621e-07 AU
  Orbit Determination Parameters
   # obs. used (total)      1235  
   data-arc span      38314 days (104.90 yr)  
   first obs. used      1908-03-23  
   last obs. used      2013-02-14  
   planetary ephem.      DE405  
   SB-pert. ephem.      SB405-CPV-2  
   condition code      0  
   fit RMS      .57901  
   data source      ORB  
   producer      Otto Matic  
   solution date      2013-Mar-29 15:05:53  

Additional Information
 Earth MOID = 3.5851 AU 
 T_jup = 2.981 
[ show covariance matrix ]

Ephemeris | Orbit Diagram | Orbital Elements | Physical Parameters | Discovery Circumstances ]

Physical Parameter Table
Parameter Symbol Value Units Sigma Reference Notes
absolute magnitude H 8.99 mag n/a IRAS-A-FPA-3-RDR-IMPS-V6.0 IRAS observations used: 16
diameter diameter 108.87 km 4.5 IRAS-A-FPA-3-RDR-IMPS-V6.0 IRAS observations used: 16
rotation period rot_per 15.98 h n/a Asteroid Lightcurve DataBase (Rev. 2013-May-01) Published Reference List:
[Mottola, S.; Di Martino, M.; Erikson, A.; Gonano-Beurer, M.; et al. (2011) Astron. J. 141, A170.]
geometric albedo albedo 0.0378   0.003 IRAS-A-FPA-3-RDR-IMPS-V6.0 IRAS observations used: 16
B-V BV .719 mag .034 EAR-A-5-DDR-UBV-MEAN-VALUES-V1.1 #obs=1; phase=8.03 deg.
U-B UB .249 mag .058 EAR-A-5-DDR-UBV-MEAN-VALUES-V1.1 #obs=1; phase=8.03 deg.
Tholen spectral type spec_T XC   n/a EAR-A-5-DDR-TAXONOMY-V4.0 used 7 color indices

659 Nestor (1908 CS)          Discovered 1908-Mar-23 by Wolf, M. at Heidelberg (024)
Reference: DISCOVERY.DBLast Updated: 2003-08-29

Alternate Designations
 1908 CS = A914 WF 
Ephemeris | Orbit Diagram | Orbital Elements | Physical Parameters | Discovery Circumstances ]
ABOUT SSD CREDITS/AWARDS PRIVACY/COPYRIGHT GLOSSARY LINKS
FirstGov 2013-May-26 03:57 UT
(server date/time)  
NASA Home Page
Site Manager:   Donald K. Yeomans
Webmaster  Alan B. Chamberlin